Location: Brunembert
(50.7122°N, 1.8935°E)
Time: 10:41:19
(UTC+00:00)

CARTOSAT-1 - Pass Details

Date: 22 April 2021
Orbit: 615 x 619 km, 97.8° (Epoch: 16 May)

Event Time Altitude Azimuth Distance (km) Brightness Sun altitude
Exits shadow 20:33:28 22° 127° (SE) 1,372 4.7 -13.6°
Maximum altitude 20:35:50 42° 68° (ENE) 895 4.1 -13.9°
Drops below altitude 10° 20:39:55 10° 358° (N) 1,995 6.8 -14.4°
Sets 20:42:12 0° 352° (N) 2,905 7.8 -14.6°
